Location: Dompnac
(44.5644°N, 4.1026°E)
Time: 05:46:10
(UTC+00:00)

NOSS 2-2 (E) - Pass Details

Date: 19 January 2021
Orbit: 462 x 1744 km, 63.3° (Epoch: 05 March)

Event Time Altitude Azimuth Distance (km) Brightness Sun altitude
Rises 19:04:55 0° 329° (NNW) 2,938 7.4 -26.4°
Reaches altitude 10° 19:08:00 10° 354° (N) 2,228 6.4 -26.9°
Enters shadow 19:08:31 11° 360° (N) 2,160 6.3 -27.0°
